This is the latest recevied weather packets stored in our database for station/object KB1JLI. If no packets are shown the sender has not sent any weather packets the latest 1 day(s).
| Time | Temp. | Humidity | Pressure | Rain* | Wind** | Luminosity | Snow |
|---|---|---|---|---|---|---|---|
| 1778011085 | 27.78° C | 39% | 1005.5 hPa | 0 mm | 3.58 m/s, 214° | 384 W/m² | - |
| 1778010783 | 27.78° C | 38% | 1005.4 hPa | 0 mm | 3.13 m/s, 198° | 425 W/m² | - |
| 1778010479 | 27.78° C | 38% | 1005.6 hPa | 0 mm | 3.13 m/s, 178° | 461 W/m² | - |
| 1778010176 | 28.33° C | 38% | 1005.3 hPa | 0 mm | 5.81 m/s, 199° | 358 W/m² | - |
| 1778009877 | 27.78° C | 39% | 1005.6 hPa | 0 mm | 1.79 m/s, 211° | 467 W/m² | - |
| 1778009575 | 27.78° C | 40% | 1005.7 hPa | 0 mm | 3.13 m/s, 197° | 479 W/m² | - |
| 1778009273 | 27.22° C | 40% | 1005.8 hPa | 0 mm | 0.89 m/s, 173° | 481 W/m² | - |
| 1778008971 | 27.22° C | 39% | 1005.8 hPa | 0 mm | 0.89 m/s, 179° | 467 W/m² | - |
| 1778008668 | 27.78° C | 40% | 1005.7 hPa | 0 mm | 4.92 m/s, 179° | 506 W/m² | - |
| 1778008367 | 27.78° C | 39% | 1006.1 hPa | 0 mm | 5.81 m/s, 209° | 516 W/m² | - |
| 1778008062 | 27.22° C | 39% | 1006.1 hPa | 0 mm | 2.68 m/s, 308° | 527 W/m² | - |
| 1778007757 | 27.78° C | 39% | 1006 hPa | 0 mm | 2.68 m/s, 127° | 533 W/m² | - |
| 1778007454 | 27.78° C | 39% | 1006.1 hPa | 0 mm | 0.45 m/s, 220° | 546 W/m² | - |
| 1778007151 | 27.78° C | 39% | 1006.1 hPa | 0 mm | 0.89 m/s, 150° | 554 W/m² | - |
| 1778006847 | 27.78° C | 38% | 1006.3 hPa | 0 mm | 2.68 m/s, 350° | 562 W/m² | - |
| 1778006544 | 27.78° C | 38% | 1006.3 hPa | 0 mm | 2.24 m/s, 196° | 600 W/m² | - |
| 1778006241 | 28.33° C | 37% | 1006.4 hPa | 0 mm | 2.68 m/s, 333° | 456 W/m² | - |
| 1778005950 | 27.78° C | 38% | 1006.4 hPa | 0 mm | 2.24 m/s, 328° | 633 W/m² | - |
| 1778005634 | 28.33° C | 37% | 1006.6 hPa | 0 mm | 1.79 m/s, 235° | 167 W/m² | - |
| 1778005332 | 27.78° C | 37% | 1006.6 hPa | 0 mm | 1.34 m/s, 70° | 666 W/m² | - |
| 1778005028 | 27.78° C | 38% | 1006.7 hPa | 0 mm | 4.02 m/s, 220° | 141 W/m² | - |
| 1778004726 | 27.78° C | 39% | 1006.6 hPa | 0 mm | 1.34 m/s, 3° | 639 W/m² | - |
| 1778004422 | 27.78° C | 38% | 1006.7 hPa | 0 mm | 0.45 m/s, 205° | 638 W/m² | - |
| 1778004119 | 27.78° C | 38% | 1006.8 hPa | 0 mm | 1.79 m/s, 58° | 640 W/m² | - |
| 1778003815 | 28.33° C | 37% | 1006.8 hPa | 0 mm | 2.24 m/s, 228° | 629 W/m² | - |
* Rain latest hour (hover to see other rain measurements)
** Current wind speed in m/s (hover to see current wind gust speed)